Date String (YYYY-MM-DD hh:mm:ss) UTC,Instrument flags,Ambient pressure (hPa),Sample flow (lpm),Bypass flow (lpm),Sample temperature (°C),Ambient temperature (°C),ASC tube jacket temperature (°C),LED temperature (°C),Box temperature (°C),Sample RH (%),Span deviation,Mass concentration (μg/m³),Mass concentration (μg/m³),Mass concentration (μg/m³)
DateTimeUTC,F1_M11,P_M11,Q1_M11,Q2_M11,T1_M11,T2_M11,T3_M11,T4_M11,T5_M11,U1_M11,ZSPAN_M11,X2_M11,X0_M11,X1_M11
2021-10-19 08:00:00,,0817.8,5.01,0.00,29.8,28.6,00.0,39.0,31.4,10.9,0000.0,0004.16,0013.91,0002.65
2021-10-19 08:01:00,,0817.8,5.00,0.00,29.7,28.6,00.0,39.0,31.4,10.9,0000.0,0004.08,0013.72,0002.64
2021-10-19 08:02:00,,0817.9,5.00,0.00,29.7,28.6,00.0,39.0,31.4,11.0,0000.0,0004.07,0013.52,0002.64
2021-10-19 08:03:00,,0817.8,5.00,0.00,29.7,28.6,00.0,39.0,31.4,11.0,0000.0,0004.08,0013.01,0002.65
2021-10-19 08:04:00,,0817.8,5.01,0.00,29.7,28.6,00.0,39.0,31.4,11.0,0000.0,0004.08,0013.04,0002.65
2021-10-19 08:05:00,,0817.8,4.99,0.00,29.7,28.6,00.0,38.9,31.4,11.0,0000.0,0004.10,0012.27,0002.66
2021-10-19 08:06:00,,0817.8,5.01,0.00,29.7,28.6,00.0,38.9,31.3,11.1,0000.0,0004.14,0011.73,0002.70
2021-10-19 08:07:00,,0817.8,4.99,0.00,29.7,28.6,00.0,38.9,31.4,11.2,0000.0,0004.13,0011.82,0002.71
2021-10-19 08:08:00,,0817.8,5.01,0.00,29.7,28.6,00.0,38.9,31.4,11.2,0000.0,0004.12,0011.88,0002.74
2021-10-19 08:09:00,,0817.9,4.99,0.00,29.7,28.6,00.0,38.9,31.3,11.2,0000.0,0004.16,0011.67,0002.76
2021-10-19 08:10:00,,0817.9,5.01,0.00,29.7,28.6,00.0,38.9,31.3,11.1,0000.0,0004.18,0011.21,0002.79
2021-10-19 08:11:00,,0817.9,5.00,0.00,29.7,28.6,00.0,38.9,31.3,11.1,0000.0,0004.17,0011.05,0002.80
2021-10-19 08:12:00,,0817.9,4.99,0.00,29.6,28.5,00.0,38.9,31.3,11.1,0000.0,0004.17,0012.07,0002.79
2021-10-19 08:13:00,,0817.9,5.00,0.00,29.6,28.5,00.0,38.9,31.3,11.3,0000.0,0004.22,0012.37,0002.82
2021-10-19 08:14:00,,0817.8,5.00,0.00,29.6,28.5,00.0,38.9,31.3,11.3,0000.0,0004.25,0012.41,0002.86
2021-10-19 08:15:00,,0817.9,4.99,0.00,29.6,28.5,00.0,38.8,31.3,11.2,0000.0,0004.22,0011.66,0002.88
2021-10-19 08:16:00,,0817.9,4.99,0.00,29.6,28.6,00.0,38.8,31.3,11.2,0000.0,0004.27,0012.07,0002.89
2021-10-19 08:17:00,,0817.9,5.01,0.00,29.6,28.6,00.0,38.8,31.3,11.3,0000.0,0004.26,0012.65,0002.88
2021-10-19 08:18:00,,0817.8,5.01,0.00,29.6,28.6,00.0,38.8,31.3,11.4,0000.0,0004.23,0012.46,0002.88
2021-10-19 08:19:00,,0817.8,5.00,0.00,29.6,28.6,00.0,38.8,31.3,11.4,0000.0,0004.23,0012.64,0002.88
2021-10-19 08:20:00,,0817.8,4.99,0.00,29.6,28.5,00.0,38.8,31.3,11.4,0000.0,0004.26,0013.46,0002.88
2021-10-19 08:21:00,,0817.8,5.01,0.00,29.6,28.5,00.0,38.8,31.3,11.5,0000.0,0004.27,0014.93,0002.90
2021-10-19 08:22:00,,0817.7,4.99,0.00,29.6,28.5,00.0,38.8,31.3,11.5,0000.0,0004.32,0015.38,0002.96
2021-10-19 08:23:00,,0817.8,5.00,0.00,29.6,28.5,00.0,38.8,31.3,11.5,0000.0,0004.41,0014.35,0003.02
2021-10-19 08:24:00,,0817.8,5.01,0.00,29.6,28.5,00.0,38.8,31.3,11.6,0000.0,0004.48,0014.50,0003.05
2021-10-19 08:25:00,,0817.8,5.00,0.00,29.6,28.5,00.0,38.8,31.2,11.6,0000.0,0004.50,0014.91,0003.08
2021-10-19 08:26:00,,0817.8,4.99,0.00,29.6,28.5,00.0,38.8,31.2,11.6,0000.0,0004.56,0015.43,0003.11
2021-10-19 08:27:00,,0817.8,5.00,0.00,29.5,28.5,00.0,38.8,31.2,11.6,0000.0,0004.59,0015.32,0003.13
2021-10-19 08:28:00,,0817.8,5.00,0.00,29.5,28.4,00.0,38.8,31.2,11.6,0000.0,0004.67,0015.48,0003.16
2021-10-19 08:29:00,,0817.8,5.00,0.00,29.5,28.4,00.0,38.7,31.2,11.6,0000.0,0004.75,0016.34,0003.18
2021-10-19 08:30:00,,0817.8,5.00,0.00,29.5,28.4,00.0,38.7,31.1,11.7,0000.0,0004.81,0016.97,0003.20
2021-10-19 08:31:00,,0817.9,4.99,0.00,29.4,28.3,00.0,38.7,31.1,11.7,0000.0,0004.81,0016.31,0003.22
2021-10-19 08:32:00,,0817.8,4.99,0.00,29.4,28.3,00.0,38.7,31.0,11.8,0000.0,0004.87,0015.26,0003.24
2021-10-19 08:33:00,,0817.8,5.00,0.00,29.3,28.2,00.0,38.7,31.0,11.8,0000.0,0004.87,0016.50,0003.24
2021-10-19 08:34:00,,0817.9,5.01,0.00,29.3,28.2,00.0,38.6,30.9,11.9,0000.0,0004.86,0017.33,0003.25
2021-10-19 08:35:00,,0817.9,4.99,0.00,29.2,28.1,00.0,38.6,30.9,11.9,0000.0,0004.82,0018.19,0003.26
2021-10-19 08:36:00,,0817.8,4.99,0.00,29.2,28.1,00.0,38.6,30.8,11.9,0000.0,0004.79,0018.25,0003.25
2021-10-19 08:37:00,,0817.8,5.01,0.00,29.2,28.1,00.0,38.5,30.8,11.8,0000.0,0004.79,0019.63,0003.25
2021-10-19 08:38:00,,0817.8,4.99,0.00,29.1,28.0,00.0,38.5,30.8,11.8,0000.0,0004.78,0020.11,0003.24
2021-10-19 08:39:00,,0817.8,5.00,0.00,29.1,28.0,00.0,38.5,30.8,11.8,0000.0,0004.80,0020.27,0003.25
2021-10-19 08:40:00,,0817.8,5.01,0.00,29.1,28.0,00.0,38.4,30.7,11.9,0000.0,0004.76,0019.67,0003.25
2021-10-19 08:41:00,,0817.8,5.01,0.00,29.0,28.0,00.0,38.4,30.7,11.9,0000.0,0004.74,0019.84,0003.24
2021-10-19 08:42:00,,0817.8,5.00,0.00,29.0,27.9,00.0,38.4,30.6,12.0,0000.0,0004.73,0019.88,0003.24
2021-10-19 08:43:00,,0817.7,5.00,0.00,29.0,27.9,00.0,38.3,30.6,12.0,0000.0,0004.66,0019.56,0003.22
2021-10-19 08:44:00,,0817.8,5.01,0.00,28.9,27.9,00.0,38.3,30.6,11.9,0000.0,0004.65,0018.24,0003.22
2021-10-19 08:45:00,,0817.7,5.01,0.00,28.9,27.9,00.0,38.3,30.6,12.0,0000.0,0004.61,0017.30,0003.21
2021-10-19 08:46:00,,0817.7,4.99,0.00,28.9,27.8,00.0,38.3,30.6,11.9,0000.0,0004.62,0017.57,0003.21
2021-10-19 08:47:00,,0817.7,5.00,0.00,28.9,27.8,00.0,38.2,30.5,11.9,0000.0,0004.68,0018.22,0003.21
2021-10-19 08:48:00,,0817.6,5.00,0.00,28.8,27.8,00.0,38.2,30.5,11.9,0000.0,0004.72,0017.44,0003.21
2021-10-19 08:49:00,,0817.6,5.01,0.00,28.8,27.8,00.0,38.2,30.4,11.9,0000.0,0004.71,0018.23,0003.21
2021-10-19 08:50:00,,0817.6,5.00,0.00,28.8,27.8,00.0,38.2,30.5,11.9,0000.0,0004.67,0017.65,0003.21
2021-10-19 08:51:00,,0817.6,5.00,0.00,28.8,27.8,00.0,38.1,30.5,11.9,0000.0,0004.75,0017.88,0003.21
2021-10-19 08:52:00,,0817.5,5.00,0.00,28.8,27.8,00.0,38.1,30.5,11.9,0000.0,0004.76,0016.48,0003.21
2021-10-19 08:53:00,,0817.6,5.01,0.00,28.8,27.9,00.0,38.1,30.5,11.9,0000.0,0004.75,0016.53,0003.20
2021-10-19 08:54:00,,0817.6,4.99,0.00,28.8,27.9,00.0,38.1,30.5,11.9,0000.0,0004.77,0016.87,0003.19
2021-10-19 08:55:00,,0817.6,5.00,0.00,28.9,27.9,00.0,38.1,30.5,11.8,0000.0,0004.81,0017.52,0003.19
2021-10-19 08:56:00,,0817.6,4.98,0.00,28.9,27.9,00.0,38.1,30.6,11.8,0000.0,0004.85,0018.84,0003.18
2021-10-19 08:57:00,,0817.5,5.00,0.00,28.9,28.0,00.0,38.1,30.6,11.7,0000.0,0004.84,0019.23,0003.17
2021-10-19 08:58:00,,0817.5,5.01,0.00,28.9,28.0,00.0,38.1,30.6,11.7,0000.0,0004.79,0018.42,0003.16
2021-10-19 08:59:00,,0817.6,5.01,0.00,28.9,28.0,00.0,38.1,30.6,11.7,0000.0,0004.74,0017.89,0003.15
